Wind_Speed
3 2 3 3 3 3 3 3 4 5 6 8 10 11 12 11 11 9 8 7 6 7 6 6 5 5 5 5 4 4 4 4 4 3 4 4 4 5 5 5 6 6 6 6 6 6 6 7 7
6 6 6 7 7 6 6 6 5 5 5 6 9 11 12 11 11 10 9 8 7 7 6 5 5 4 4 5 4 4 4 4 4 4 4 5 5 5 6 7 7 8 8 8 8 7 7 7 7
8 8 9 10 11 9 8 8 7 6 6 7 9 11 12 12 12 10 9 8 7 7 6 5 4 4 4 4 5 5 5 5 5 5 6 6 7 8 8 9 9 10 10 10 10 10 9 8 8
10 10 11 13 14 13 11 11 9 7 7 8 10 12 13 13 12 11 9 8 7 8 8 6 5 5 5 4 5 5 6 6 6 7 7 8 8 9 10 10 11 12 12 12 12 12 11 11 10
12 13 14 16 17 15 13 13 11 10 9 9 11 13 14 14 13 12 10 8 8 8 8 7 6 6 5 5 6 6 7 8 8 8 9 9 9 10 11 12 12 13 14 14 14 14 14 14 13
15 15 16 18 19 17 17 16 14 13 11 9 12 13 14 14 14 12 11 10 10 9 9 8 8 7 7 7 8 8 9 9 9 10 10 11 11 12 12 13 14 14 15 15 16 16 16 16 16
17 17 18 20 21 21 20 18 17 15 12 10 12 13 14 14 14 13 13 13 12 11 10 10 10 9 9 9 10 10 11 11 12 12 12 12 13 13 14 14 15 16 17 17 18 19 18 18 19
19 19 20 23 24 24 22 21 19 17 15 13 13 13 15 16 15 15 14 13 13 13 12 12 12 12 12 12 12 13 14 14 15 15 15 15 15 16 16 17 17 18 19 20 20 21 21 21 21
21 21 23 26 26 26 24 23 21 20 17 16 15 15 17 16 16 17 16 16 15 14 14 15 15 15 16 15 16 17 17 17 17 17 17 18 18 19 19 20 20 20 21 22 22 23 23 23 23
23 23 25 29 30 29 27 25 24 23 20 19 18 18 18 18 19 19 19 19 18 17 18 18 18 19 20 20 20 21 21 20 20 20 20 21 21 22 22 23 24 23 23 24 25 25 25 25 25
25 25 28 31 33 33 31 29 27 26 24 23 21 20 20 21 21 21 21 20 20 20 20 20 20 21 22 23 24 25 26 24 23 23 23 24 24 24 25 26 26 26 27 26 27 27 28 27 27
26 26 29 32 34 34 34 32 31 29 27 26 26 24 23 23 23 22 22 21 21 21 21 22 22 23 25 26 26 26 26 25 25 25 25 26 27 27 28 28 29 29 29 29 29 30 30 30 29
24 24 27 30 33 34 34 34 33 32 31 30 29 28 26 25 23 21 20 20 21 21 21 23 24 24 24 24 24 25 25 25 25 26 27 28 28 28 29 30 30 31 32 32 31 32 31 31 30
20 21 23 27 31 33 34 34 33 32 32 31 30 29 27 24 22 20 19 19 19 20 21 22 23 23 24 24 25 25 25 26 26 26 28 28 29 29 30 30 31 33 33 32 32 32 32 31 30
17 18 20 23 26 29 32 33 33 31 31 30 29 28 26 23 21 20 19 18 18 19 20 21 22 24 25 25 26 27 27 26 26 27 28 28 29 30 31 32 32 33 33 33 33 32 31 31 31
12 14 17 19 21 24 27 28 28 28 29 28 28 26 24 22 21 19 19 18 18 19 19 21 23 23 24 25 26 27 27 27 28 28 29 30 30 31 32 32 33 33 34 34 34 33 32 32 32
9 10 12 15 17 19 23 24 25 25 26 27 26 25 23 22 20 19 18 18 18 19 20 21 22 22 23 24 26 27 27 28 29 30 30 31 32 32 33 33 33 33 34 34 34 34 33 33 33
8 9 11 13 14 16 18 20 22 22 23 23 24 23 21 20 19 18 17 17 18 19 19 20 21 23 24 25 26 27 28 29 30 31 31 32 33 33 34 34 34 34 34 34 34 34 34 34 34
8 9 10 11 12 12 14 15 17 18 19 19 20 18 18 17 18 17 16 16 17 18 19 21 22 23 25 26 27 28 29 30 31 32 32 33 33 34 34 34 34 34 34 34 34 34 34 35 34
6 7 7 8 10 11 11 12 14 15 16 15 15 15 15 15 15 15 16 16 17 18 19 21 23 24 26 27 29 30 31 32 33 33 33 33 33 33 33 33 34 34 34 34 34 34 35 35 35
5 6 6 6 5 6 8 8 9 10 11 12 12 11 11 12 13 14 14 15 17 18 20 22 24 26 27 29 30 31 32 33 33 33 33 33 32 32 32 32 33 33 33 34 34 34 34 35 35
6 6 5 5 5 5 4 5 6 5 6 8 8 8 8 9 10 12 14 16 17 19 21 23 25 27 28 30 30 31 31 32 32 33 33 33 33 32 32 33 33 33 34 34 34 34 34 34 35
7 6 5 6 5 4 5 6 5 4 2 3 5 6 7 8 10 12 14 16 18 20 22 23 25 26 27 28 29 29 30 30 30 31 31 32 32 32 32 32 33 33 34 34 35 34 34 35 35
7 6 5 5 3 2 4 6 6 4 2 2 2 3 6 9 12 14 15 17 18 20 22 23 24 25 26 27 28 28 28 29 29 30 30 31 32 33 33 33 33 33 34 34 35 35 35 35 35
6 6 5 4 3 2 3 5 6 3 2 0 3 5 8 10 12 15 16 17 18 20 21 23 24 25 26 27 28 28 28 29 29 30 30 31 32 33 34 34 34 34 34 35 35 35 36 36 36
6 7 6 5 4 3 3 4 5 4 3 4 6 8 10 12 13 14 15 16 18 20 22 24 25 26 27 28 29 29 29 29 30 31 31 32 33 33 34 35 35 35 36 35 35 36 36 36 37
7 7 7 7 6 4 3 3 5 6 7 8 9 10 11 12 13 14 15 17 19 21 24 25 27 28 29 29 30 30 30 31 32 33 34 34 34 35 35 35 35 36 36 36 36 36 36 37 37
8 8 8 9 8 6 3 4 5 6 8 10 11 12 12 13 13 14 16 18 21 24 26 27 29 30 31 31 31 32 33 33 34 35 36 36 36 36 36 36 36 36 36 36 36 36 36 37 38
8 9 9 10 9 8 5 6 6 8 9 11 13 13 14 14 14 16 18 21 23 26 28 29 30 32 32 33 33 34 35 36 37 37 38 38 38 38 37 37 37 37 37 37 37 37 37 37 38
10 10 11 10 9 9 8 8 8 10 11 13 14 15 15 16 17 19 21 23 25 27 29 31 32 33 34 35 35 36 37 38 38 39 40 40 39 39 39 38 37 37 37 37 37 37 37 37 38
Wind_Direction
329 285 265 256 254 259 291 325 352 3 22 21 14 5 356 351 350 346 342 340 344 339 332 331 340 353 360 359 359 360 6 11 11 10 8 4 358 353 348 343 341 340 340 341 344 350 353 357 3
314 293 275 270 268 269 285 298 317 341 356 3 8 1 356 351 346 342 339 337 335 326 320 322 333 339 343 346 347 347 344 343 342 339 334 331 328 324 321 319 319 319 319 319 319 321 323 326 332
308 290 274 271 268 266 272 282 296 313 329 343 355 357 356 353 348 342 341 337 329 319 314 312 317 323 324 327 328 326 324 320 319 316 314 314 312 310 307 306 306 307 306 305 304 305 304 303 304
297 285 270 264 265 271 270 271 280 290 307 328 343 345 347 346 342 338 335 332 322 313 307 304 306 307 307 309 311 312 312 310 308 306 307 307 307 308 307 306 304 302 300 299 297 296 294 291 288
288 277 268 263 265 268 266 267 270 279 289 312 324 332 336 337 336 332 328 320 314 312 303 297 297 298 299 298 300 302 304 305 303 304 305 304 304 304 306 307 305 302 299 296 294 291 287 283 281
283 275 264 257 262 263 261 265 268 271 278 300 314 322 326 328 331 331 326 315 310 305 295 290 288 286 288 290 292 295 296 297 298 299 300 299 300 299 301 301 301 301 300 296 292 291 288 283 277
278 271 260 253 256 259 258 262 262 266 276 293 305 309 313 318 320 320 318 313 304 298 287 282 282 282 282 284 288 290 292 294 295 295 296 297 297 297 297 296 296 296 297 298 295 291 289 286 280
273 263 251 245 249 254 257 255 256 257 264 277 289 299 306 310 311 311 310 305 299 295 285 278 278 278 280 281 284 287 289 289 290 291 294 294 293 292 291 292 293 294 295 295 295 293 290 287 283
266 253 242 237 241 249 252 251 254 255 262 273 283 292 298 304 306 304 302 298 291 286 282 277 277 277 276 278 281 282 283 284 283 283 286 289 289 288 288 290 292 292 292 293 293 293 291 288 285
259 247 236 235 237 244 247 249 253 256 264 269 277 285 291 297 301 300 297 295 288 283 281 277 275 276 276 277 277 277 278 279 280 278 279 282 284 284 284 286 287 288 288 289 290 289 290 288 286
254 242 234 234 238 242 245 249 253 258 262 270 275 281 289 294 296 296 294 291 287 284 282 278 275 274 276 277 275 273 274 271 272 274 275 279 281 281 281 282 284 285 286 286 286 286 287 285 283
253 243 235 235 239 242 245 249 253 258 265 273 279 285 290 291 293 293 291 289 286 284 281 280 279 279 279 280 278 277 278 277 277 278 280 282 281 279 279 280 284 284 285 286 287 284 283 284 281
252 246 239 237 240 243 246 249 253 258 266 274 280 284 288 290 291 289 288 288 288 285 283 279 280 280 282 286 288 287 284 285 284 283 284 283 280 280 283 285 285 284 285 284 285 284 282 282 280
252 245 241 238 240 243 246 249 254 260 267 273 278 283 286 286 287 287 288 287 289 288 286 285 284 286 287 288 291 293 291 288 287 289 287 283 284 283 283 283 284 283 283 282 282 282 281 279 277
250 245 242 242 244 246 248 251 256 263 268 274 279 284 285 287 289 289 290 291 291 289 288 290 291 291 292 294 295 296 296 295 293 292 292 290 289 288 286 285 284 284 284 282 281 280 278 276 274
250 248 248 249 249 250 252 255 258 263 269 274 278 282 284 288 289 289 290 291 292 291 290 290 291 293 296 298 298 299 300 299 297 296 294 294 292 290 289 287 286 285 284 282 280 278 276 274 272
255 254 256 258 258 257 257 258 261 267 270 271 275 278 281 285 287 289 290 292 295 294 294 295 296 299 301 302 303 304 304 303 302 300 297 295 294 292 290 288 286 284 283 281 279 277 275 273 271
261 258 259 263 267 268 267 269 272 273 273 272 274 275 278 284 287 289 292 295 298 299 300 302 304 306 307 307 307 306 305 304 302 301 299 297 295 293 292 290 288 286 284 281 279 276 274 272 271
270 265 267 273 278 280 280 280 281 277 274 272 272 272 278 286 291 294 299 302 303 305 305 305 307 308 309 309 309 309 308 307 305 303 301 299 298 296 294 292 289 287 285 282 280 278 276 273 271
291 282 282 284 285 286 288 290 285 274 269 266 264 266 275 286 293 296 299 303 305 307 310 311 311 312 313 312 312 311 310 309 307 305 303 301 299 297 295 293 290 288 286 284 282 279 276 274 271
316 316 314 309 316 297 293 294 289 276 259 254 255 262 275 284 293 299 302 305 309 312 314 315 315 315 314 313 312 311 310 309 307 305 303 302 300 298 297 295 292 289 287 284 282 280 277 274 272
323 332 339 343 339 336 321 320 323 293 254 248 249 260 280 288 297 302 305 307 311 314 315 315 315 314 313 313 312 310 308 307 306 304 303 302 301 299 296 295 293 290 287 285 282 280 277 274 272
317 320 333 334 335 1 11 5 8 348 274 238 228 250 271 286 298 303 305 307 311 313 314 314 314 313 313 313 313 312 311 310 308 307 306 304 303 301 299 297 294 291 288 285 283 280 277 274 271
326 326 324 327 325 1 11 10 20 34 73 148 201 256 279 291 296 299 302 304 308 311 312 314 315 316 316 316 316 316 316 316 314 313 311 309 307 305 303 300 297 294 290 286 283 280 276 273 270
334 331 329 330 325 327 350 5 14 25 49 317 283 285 288 291 294 296 299 303 309 313 317 319 321 322 322 323 323 323 322 322 321 319 317 314 311 309 306 303 299 296 293 289 285 280 276 272 269
335 335 339 344 339 310 299 331 344 329 303 289 288 290 294 297 299 300 304 309 316 321 325 327 328 329 330 330 330 329 327 326 325 323 320 318 315 312 309 306 302 298 294 290 286 281 277 272 269
319 330 336 339 339 328 306 298 304 291 284 284 290 295 299 303 304 307 313 319 325 329 331 333 335 336 335 334 333 332 330 329 327 326 324 322 319 315 312 308 304 300 296 292 287 282 277 273 269
301 314 322 332 336 341 331 311 299 278 279 285 293 301 305 309 312 317 323 328 331 334 336 338 339 339 337 335 333 333 332 331 330 328 326 323 321 318 314 309 305 301 297 292 288 283 278 274 270
292 302 309 317 323 326 331 326 301 292 291 296 301 307 311 316 321 326 331 334 336 338 339 340 339 337 336 335 333 333 332 331 330 329 327 325 322 319 315 311 306 302 297 292 289 284 280 276 271
285 293 301 308 314 318 321 326 311 303 303 305 308 312 317 324 329 333 336 337 338 339 340 339 337 336 335 334 334 332 332 331 330 329 327 326 323 320 316 312 307 303 299 295 291 286 281 277 273
Height
5915 5914 5915 5915 5915 5914 5912 5912 5911 5910 5910 5910 5910 5910 5909 5909 5910 5911 5909 5906 5906 5906 5905 5904 5904 5903 5903 5902 5902 5902 5902 5902 5902 5902 5903 5903 5903 5903 5903 5903 5903 5902 5902 5902 5902 5902 5901 5901 5900
5914 5914 5915 5914 5913 5912 5912 5911 5911 5910 5910 5909 5909 5909 5909 5909 5908 5908 5907 5906 5906 5906 5905 5904 5903 5903 5902 5902 5902 5901 5901 5901 5901 5901 5902 5902 5902 5902 5902 5902 5901 5901 5901 5901 5901 5900 5900 5900 5900
5914 5913 5914 5912 5910 5910 5910 5909 5910 5910 5909 5909 5908 5908 5909 5908 5908 5907 5907 5906 5906 5905 5905 5904 5903 5902 5901 5901 5901 5901 5901 5901 5901 5900 5900 5900 5900 5900 5900 5900 5900 5899 5899 5899 5899 5899 5899 5899 5899
5914 5913 5912 5911 5908 5908 5908 5908 5908 5908 5908 5908 5907 5907 5907 5907 5907 5906 5906 5905 5905 5905 5904 5903 5902 5901 5901 5900 5900 5900 5900 5900 5899 5899 5899 5899 5899 5898 5898 5897 5897 5897 5897 5897 5897 5897 5897 5897 5897
5912 5911 5910 5907 5906 5906 5906 5906 5907 5907 5907 5906 5906 5906 5905 5906 5906 5905 5905 5905 5904 5904 5903 5902 5901 5900 5900 5899 5899 5899 5899 5898 5898 5898 5897 5897 5897 5896 5896 5895 5895 5894 5894 5894 5894 5894 5894 5894 5894
5910 5908 5907 5905 5903 5903 5904 5904 5905 5905 5904 5904 5905 5904 5904 5904 5904 5904 5904 5903 5903 5902 5902 5901 5900 5899 5899 5898 5898 5897 5897 5896 5896 5896 5895 5895 5894 5894 5893 5893 5892 5891 5891 5890 5890 5890 5890 5890 5891
5907 5905 5904 5902 5900 5900 5901 5901 5902 5902 5901 5902 5902 5902 5902 5903 5903 5903 5902 5902 5901 5901 5900 5899 5898 5898 5897 5897 5896 5895 5895 5894 5894 5893 5893 5892 5892 5891 5890 5890 5889 5888 5888 5887 5887 5886 5886 5886 5887
5902 5902 5900 5898 5897 5897 5898 5898 5899 5899 5899 5900 5900 5900 5901 5901 5901 5901 5900 5900 5899 5899 5898 5897 5896 5895 5895 5894 5894 5893 5893 5892 5891 5891 5890 5889 5889 5888 5887 5887 5886 5885 5884 5883 5883 5882 5882 5882 5882
5897 5898 5896 5894 5893 5893 5893 5895 5895 5896 5896 5897 5897 5898 5898 5898 5898 5898 5897 5897 5896 5895 5894 5894 5893 5892 5891 5891 5890 5889 5889 5888 5887 5886 5886 5885 5885 5884 5883 5882 5882 5881 5880 5879 5879 5878 5877 5877 5877
5891 5892 5891 5890 5889 5889 5889 5891 5892 5892 5893 5894 5894 5895 5895 5895 5895 5895 5894 5893 5892 5891 5890 5890 5889 5888 5887 5887 5886 5885 5884 5883 5882 5882 5881 5881 5880 5879 5878 5878 5877 5876 5875 5875 5874 5873 5872 5872 5872
5884 5885 5885 5884 5884 5885 5886 5887 5888 5889 5890 5890 5891 5891 5892 5892 5891 5891 5890 5889 5888 5887 5886 5885 5884 5883 5883 5882 5881 5880 5878 5877 5876 5876 5875 5875 5874 5873 5873 5872 5871 5870 5870 5869 5868 5868 5867 5866 5866
5878 5878 5879 5879 5880 5881 5882 5884 5885 5885 5886 5886 5887 5887 5888 5888 5888 5887 5886 5885 5884 5883 5882 5881 5879 5878 5877 5876 5875 5873 5872 5871 5870 5870 5869 5868 5867 5867 5866 5865 5864 5864 5863 5862 5862 5861 5860 5860 5860
5872 5873 5874 5875 5876 5878 5879 5880 5881 5881 5882 5882 5883 5883 5884 5884 5883 5883 5882 5880 5879 5878 5877 5876 5875 5873 5872 5870 5868 5867 5866 5866 5865 5864 5863 5862 5861 5860 5859 5859 5858 5857 5856 5856 5855 5855 5854 5854 5853
5867 5868 5869 5871 5873 5874 5875 5876 5877 5878 5878 5879 5879 5879 5879 5879 5879 5878 5877 5876 5875 5874 5872 5871 5870 5868 5867 5865 5863 5862 5861 5860 5859 5858 5856 5855 5854 5853 5852 5851 5850 5850 5849 5848 5849 5848 5847 5847 5846
5864 5865 5866 5868 5869 5871 5872 5873 5874 5874 5875 5875 5875 5875 5874 5874 5874 5873 5873 5872 5871 5869 5868 5867 5866 5864 5863 5861 5860 5858 5856 5855 5854 5852 5851 5848 5847 5846 5845 5844 5843 5842 5841 5841 5841 5840 5840 5840 5840
5862 5864 5865 5866 5866 5867 5870 5870 5870 5871 5871 5871 5871 5871 5870 5870 5869 5869 5868 5868 5867 5865 5864 5863 5862 5860 5858 5856 5855 5852 5851 5849 5848 5846 5844 5842 5841 5839 5838 5836 5836 5834 5834 5833 5832 5832 5832 5832 5832
5862 5863 5863 5864 5864 5864 5866 5866 5867 5867 5867 5867 5867 5867 5867 5866 5865 5865 5864 5863 5862 5861 5860 5859 5857 5855 5854 5852 5850 5847 5845 5843 5841 5839 5837 5835 5833 5832 5830 5829 5827 5826 5825 5824 5824 5824 5823 5823 5823
5862 5862 5862 5862 5862 5862 5862 5863 5863 5863 5863 5862 5863 5862 5862 5862 5862 5861 5860 5859 5858 5857 5855 5854 5852 5850 5848 5846 5844 5842 5839 5837 5834 5832 5830 5828 5826 5824 5822 5820 5818 5817 5816 5815 5815 5814 5814 5814 5815
5862 5861 5861 5861 5861 5860 5860 5859 5859 5857 5857 5857 5857 5857 5857 5858 5858 5857 5856 5855 5854 5852 5851 5850 5848 5846 5844 5841 5838 5836 5833 5830 5828 5825 5822 5820 5818 5816 5814 5812 5810 5808 5807 5806 5805 5805 5805 5805 5805
5862 5861 5861 5860 5859 5858 5857 5856 5854 5852 5852 5852 5853 5854 5854 5854 5854 5854 5853 5852 5850 5849 5847 5846 5844 5841 5838 5836 5833 5829 5826 5823 5820 5817 5815 5812 5810 5807 5805 5803 5801 5799 5798 5796 5796 5795 5795 5795 5795
5862 5861 5860 5859 5858 5856 5855 5854 5851 5849 5848 5849 5850 5851 5851 5852 5852 5851 5850 5849 5847 5846 5844 5841 5839 5836 5833 5830 5827 5823 5820 5816 5813 5810 5807 5805 5802 5799 5797 5795 5793 5790 5789 5787 5786 5786 5786 5785 5785
5862 5861 5860 5859 5857 5856 5854 5852 5849 5847 5846 5847 5848 5849 5849 5850 5850 5849 5848 5846 5845 5843 5840 5838 5835 5832 5829 5825 5821 5818 5814 5810 5807 5803 5800 5797 5794 5791 5789 5786 5784 5782 5780 5778 5777 5776 5776 5776 5776
5862 5861 5860 5859 5857 5856 5854 5852 5850 5846 5845 5846 5847 5848 5849 5849 5848 5847 5846 5844 5842 5840 5838 5835 5832 5828 5824 5820 5816 5812 5808 5804 5800 5796 5792 5789 5785 5782 5780 5777 5775 5772 5770 5768 5767 5766 5766 5766 5766
5861 5860 5859 5858 5857 5856 5854 5853 5851 5848 5847 5847 5848 5848 5848 5848 5847 5846 5844 5843 5840 5838 5835 5831 5828 5824 5819 5815 5810 5806 5801 5797 5792 5788 5784 5781 5777 5774 5771 5768 5765 5763 5761 5759 5757 5756 5755 5755 5755
5861 5860 5859 5858 5856 5856 5854 5853 5852 5850 5849 5849 5848 5848 5847 5847 5846 5844 5842 5840 5838 5835 5831 5827 5823 5818 5813 5808 5803 5799 5794 5790 5785 5781 5777 5773 5769 5765 5762 5758 5755 5753 5750 5748 5747 5745 5745 5745 5745
5860 5859 5859 5858 5856 5855 5854 5853 5853 5851 5849 5848 5848 5847 5846 5845 5843 5842 5839 5837 5834 5830 5826 5822 5817 5812 5807 5802 5797 5792 5788 5783 5779 5774 5770 5766 5761 5757 5753 5749 5745 5742 5740 5738 5736 5734 5734 5733 5734
5859 5858 5857 5856 5855 5854 5853 5853 5852 5850 5849 5847 5846 5845 5844 5843 5841 5838 5836 5832 5829 5825 5820 5816 5810 5805 5800 5796 5791 5786 5781 5777 5772 5767 5762 5757 5753 5748 5743 5739 5735 5732 5729 5727 5725 5723 5722 5721 5722
5858 5857 5856 5855 5854 5853 5852 5851 5850 5848 5847 5845 5844 5843 5841 5839 5837 5834 5831 5827 5823 5819 5814 5809 5804 5800 5795 5790 5785 5780 5775 5770 5765 5760 5754 5749 5744 5739 5734 5730 5726 5722 5719 5716 5714 5712 5711 5710 5710
5857 5856 5854 5853 5852 5851 5850 5851 5848 5846 5844 5843 5841 5840 5838 5835 5833 5829 5826 5822 5818 5813 5808 5804 5799 5794 5790 5785 5779 5774 5769 5763 5758 5752 5746 5741 5735 5730 5725 5720 5715 5711 5708 5704 5702 5700 5699 5698 5697
5854 5854 5853 5852 5851 5849 5848 5850 5845 5843 5842 5840 5838 5836 5833 5831 5827 5824 5820 5816 5812 5807 5803 5798 5794 5789 5784 5779 5773 5767 5762 5756 5750 5744 5738 5732 5726 5721 5715 5710 5705 5700 5696 5693 5690 5688 5686 5685 5685